Regional Weather Roundup
Issued by NWS

Home | Current Version | Previous Version | Graphics & Text | Print | Product List | Glossary Off
Versions: 1 2 3 4 5 6 7 8 9 10 11 12 13 14 15 16 17 18 19 20 21 22 23 24 25 26 27 28 29 30 31 32 33 34 35 36 37 38 39 40 41 42 43 44 45 46 47 48 49 50

000
ASUS43 KDTX 281110
RWRMI
MICHIGAN HOURLY REGIONAL WEATHER ROUNDUP
NATIONAL WEATHER SERVICE DETROIT/PONTIAC MI
700 AM EDT THU MAY 28 2015

NOTE: "FAIR" INDICATES FEW OR NO CLOUDS BELOW 12,000 FEET WITH NO
SIGNIFICANT WEATHER AND/OR OBSTRUCTION TO VISIBILITY.

MIZ047>049-052>055-059>063-066>070-074>076-081>083-281200-
SOUTHEAST LOWER MICHIGAN

CITY           SKY/WX    TMP DP  RH WIND       PRES   REMARKS
ADRIAN         CLEAR     54  53  97 CALM      30.23R
ALMA           PTCLDY    55  55  99 CALM      30.20R
ANN ARBOR      CLEAR     52  51  97 W5        30.22S FOG
BAD AXE        CLEAR     49  48  96 CALM      30.21R
CARO           CLEAR     53  52  97 CALM      30.21R FOG
DETROIT CITY   CLEAR     58  55  90 CALM      30.22R
DETROIT        PTCLDY    59  56  89 CALM      30.22R
FLINT          CLEAR     56  53  90 S3        30.22R FOG
GROSSE ILE     CLEAR     57  55  94 CALM      30.21R
HILLSDALE      MOCLDY    52  52 100 CALM      30.23R FOG
HOWELL           N/A     53  52  98 CALM      30.22R FOG

CITY           SKY/WX    TMP DP  RH WIND       PRES   REMARKS
JACKSON        CLEAR     52  51  97 CALM      30.23R
LAMBERTVILLE   CLEAR     55  54  94 CALM      30.23R FOG
LANSING        CLEAR     55  53  93 CALM      30.22R
LAPEER           N/A     52  51  96 CALM      30.22R FOG
MASON            N/A     51  51  98 CALM      30.23R FOG
MONROE           N/A     55  54  94 CALM      30.21R FOG
MT. CLEMENS    CLEAR     55  54  98 CALM      30.19S
PONTIAC        PTCLDY    56  54  93 CALM      30.21R
PORT HOPE        N/A     55  52  89 S3        30.18R
PORT HURON     FOG       50  50 100 CALM      30.22R VSB 1
TRI CITIES     CLEAR     59  56  89 S5        30.21R
MIDLAND        FAIR      55  54  97 CALM      30.19R
TROY           CLEAR     58  56  93 CALM      30.24R
SAGINAW HB     CLEAR     55  55 100 CALM      30.21R
$$
MIZ043>046-050>051-056>058-064>065-071>073-077>080-281200-
SOUTHWEST LOWER MICHIGAN

CITY           SKY/WX    TMP DP  RH WIND       PRES   REMARKS
BATTLE CREEK   CLEAR     55  53  93 S3        30.22R
BENTON HARBOR  CLEAR     51  51 100 CALM      30.20R
BIG RAPIDS     PTCLDY    55  52  90 SE6       30.18R
COLDWATER      CLEAR     50  49  99 CALM      30.22R FOG
FREMONT        FAIR      52  52  99 CALM      30.19R
HOLLAND        CLEAR     54  52  93 SE3       30.21R
GRAND RAPIDS   PTCLDY    54  53  97 CALM      30.21R
IONIA          FAIR      55  54  98 CALM      30.20R FOG
KALAMAZOO      FAIR      55  53  93 CALM      30.22R
LUDINGTON      CLEAR     56  53  89 CALM      30.17S
MARSHALL       FOG       52  51  97 CALM      30.22R VSB 1/2
MOUNT PLEASANT CLEAR     55  53  94 CALM      30.19R
MUSKEGON       PTCLDY    53  51  93 SE5       30.21R
SOUTH HAVEN    CLEAR     52  51  97 CALM      30.20R
$$
MIZ016>042-281200-
NORTHERN LOWER MICHIGAN

CITY           SKY/WX    TMP DP  RH WIND       PRES   REMARKS
ALPENA         CLEAR     54  51  90 SW3       30.18R
BEAVER ISLAND  CLEAR     46  45  97 W3        30.17R
BELLAIRE       CLEAR     50  49  96 CALM      30.17R FOG
CADILLAC       PTCLDY    55  55  97 CALM      30.18R
CHARLEVOIX     CLEAR     50  49  97 N6        30.19R
FRANKFORT      CLEAR     55  48  80 NW3       30.16R
GAYLORD        CLEAR     54  54 100 CALM      30.17R
GRAYLING       CLEAR     48  48 100 CALM      30.19R
HARBOR SPRINGS CLEAR     51  51  98 CALM      30.16R FOG
HOUGHTON LAKE  MOCLDY    57  54  89 CALM      30.18R
MANISTEE       CLEAR     52  48  87 CALM      30.18R
OSCODA         CLEAR     54  53  97 CALM      30.18R
PELLSTON       CLEAR     50  49  96 CALM      30.16R
ROGERS CITY    CLEAR     55  53  94 CALM      30.18R
TRAVERSE CITY  PTCLDY    57  55  93 CALM      30.14R
$$
MIZ007>008-015-281200-
EASTERN UPPER MICHIGAN

CITY           SKY/WX    TMP DP  RH WIND       PRES   REMARKS
KINROSS        MOCLDY    48  48 100 CALM      30.16R
MACKINAC ISLAN PTCLDY    51  49  95 W6        30.17R
NEWBERRY       FOG       49  49 100 N10       30.16R VSB<1/4
S. S. MARIE    CLOUDY    52  50  93 CALM      30.16R FOG
MUNISING         N/A     44  42  93 NW6       30.16R
$$
MIZ004>006-011>014-085-281200-
CENTRAL UPPER MICHIGAN

CITY           SKY/WX    TMP DP  RH WIND       PRES   REMARKS
MANISTIQUE     FOG       49  48  97 CALM      30.15R VSB<1/4
ESCANABA       CLEAR     52  48  87 NE7       30.14R
MENOMINEE      CLEAR     55  52  88 SW5       30.14R
SAWYER-GWINN   FOG       43  41  93 NE8       30.16R VSB 1/4
$$
MIZ001>003-009>011-084-281200-
WESTERN UPPER MICHIGAN

CITY           SKY/WX    TMP DP  RH WIND       PRES   REMARKS
IRON MOUNTAIN  PTCLDY    49  47  93 CALM      30.13R FOG
HOUGHTON       CLOUDY    44  41  89 SE10      30.16R
COPPER HARBOR    N/A     45  40  82 CALM      30.17R
IRONWOOD       CLEAR     48  48 100 CALM      30.08R
$$

ABBREVIATIONS USED IN REMARKS
   TC - TEMPERATURE IN CELSIUS
  WCI - WIND CHILL INDEX
   HX - HEAT INDEX
  VSB - VISIBILITY



USA.gov is the U.S. government's official web portal to all federal, state and local government web resources and services.